Regional Weather Roundup
Issued by NWS

Home | Current Version | Previous Version | Text Only | Print | Product List | Glossary Off
Versions: 1 2 3 4 5 6 7 8 9 10 11 12 13 14 15 16 17 18 19 20 21 22 23 24 25 26 27 28 29 30 31 32 33 34 35 36 37 38 39 40 41 42 43 44 45 46 47 48 49 50

000
ASUS43 KLMK 212202
RWRKY
KENTUCKY REGIONAL WEATHER ROUNDUP
NATIONAL WEATHER SERVICE LOUISVILLE KY
600 PM EDT SAT OCT 21 2017

NOTE "FAIR" INDICATES FEW OR NO CLOUDS BELOW 12,000 FEET
WITH NO SIGNIFICANT WEATHER AND/OR OBSTRUCTIONS TO VISIBILITY.

KYZ001>023-026-027-061>063-070>075-212300-
WESTERN AND SOUTH CENTRAL KENTUCKY

CITY           SKY/WX    TMP DP  RH WIND       PRES   REMARKS
PADUCAH        MOSUNNY   79  57  46 S8        30.07F
HENDERSON      SUNNY     76  56  49 SE8       30.12S
OWENSBORO      MOSUNNY   77  54  44 S12       30.13S
HOPKINSVILLE   SUNNY     77  52  41 S3        30.16S
BOWLING GREEN  SUNNY     73  58  59 SE6       30.17F
GLASGOW        PTSUNNY   74  50  43 CALM      30.18F
$$

KYZ024-025-028>034-038-045-046-053-212300-
NORTH CENTRAL KENTUCKY

CITY           SKY/WX    TMP DP  RH WIND       PRES   REMARKS
LOUISVILLE/SDF MOCLDY    75  48  38 S10       30.17F
LOUISVILLE/LOU PTCLDY    74  50  42 S8        30.18F
FORT KNOX      MOSUNNY   73  47  39 SE9       30.16F
$$

KYZ035>037-039>044-047>052-055>060-089>105-212300-
NORTHEAST KENTUCKY

CITY           SKY/WX    TMP DP  RH WIND       PRES   REMARKS
LEXINGTON      PTCLDY    72  48  42 S3        30.22F
COVINGTON      MOCLDY    68  53  58 S5        30.20F
FRANKFORT      PTCLDY    72  45  37 S6        30.20S
$$

KYZ054-064>069-076>088-106>120-212300-
SOUTHEAST KENTUCKY

CITY           SKY/WX    TMP DP  RH WIND       PRES   REMARKS
JACKSON        PTCLDY    72  49  44 CALM      30.26F
LONDON         CLOUDY    72  45  37 SE5       30.24F
SOMERSET       NOT AVBL
MIDDLESBORO    CLEAR     72  54  53 SW3       30.26S
MONTICELLO     CLOUDY    72  50  45 SE8       30.24S
$$





USA.gov is the U.S. government's official web portal to all federal, state and local government web resources and services.